Location: Mount Cross
(36.6390°N, 79.4878°W)
Time: 06:51:32
(UTC+00:00)

Altair - Visible Passes

Search period start: 23 April 2024 00:00
Search period end: 03 May 2024 00:00
Orbit: 1502 x 1682 km, 47.2° (Epoch: 22 April)

Date Brightness Start Highest point End Pass type
(mag) Time Alt. Az. Time Alt. Az. Time Alt. Az.
23 Apr 8.3 00:34:56 10° W 00:44:50 57° NNW 00:54:27 10° ENE visible
23 Apr 8.3 02:41:52 10° WNW 02:51:19 45° N 02:58:38 17° ENE visible
23 Apr 7.6 04:47:35 10° WNW 04:56:37 70° N 04:56:37 70° N visible
23 Apr 9.1 06:52:58 10° WNW 06:54:36 16° WNW 06:54:36 16° WNW visible
24 Apr 8.3 00:09:32 10° W 00:19:30 59° NNW 00:29:12 10° ENE visible
24 Apr 8.4 02:16:29 10° WNW 02:25:57 45° N 02:34:20 13° ENE visible
24 Apr 7.5 04:22:18 10° WNW 04:32:06 70° NNE 04:32:19 69° NE visible
24 Apr 8.9 06:27:37 10° WNW 06:30:17 20° WNW 06:30:17 20° WNW visible
25 Apr 8.4 01:51:05 10° WNW 02:00:35 45° N 02:09:44 10° ENE visible
25 Apr 7.6 03:57:02 10° WNW 04:06:50 66° NNE 04:08:04 61° ENE visible
25 Apr 8.7 06:02:17 10° WNW 06:06:03 26° WNW 06:06:03 26° WNW visible
26 Apr 8.4 01:25:41 10° WNW 01:35:12 45° N 01:44:25 10° ENE visible
26 Apr 7.7 03:31:44 10° WNW 03:41:33 63° NNE 03:43:51 51° ENE visible
26 Apr 8.5 05:36:58 10° WNW 05:41:50 32° WNW 05:41:50 32° WNW visible
27 Apr 8.5 01:00:17 10° WNW 01:09:50 45° N 01:19:05 10° ENE visible
27 Apr 7.8 03:06:28 10° WNW 03:16:15 60° NNE 03:19:40 41° E visible
27 Apr 8.2 05:11:40 10° WNW 05:17:39 40° W 05:17:39 40° W visible
28 Apr 8.5 00:34:52 10° WNW 00:44:28 46° N 00:53:46 10° ENE visible
28 Apr 7.9 02:41:10 10° WNW 02:50:57 58° NNE 02:55:30 33° E visible
28 Apr 7.9 04:46:23 10° WNW 04:53:30 50° W 04:53:30 50° W visible
29 Apr 8.0 02:15:51 10° WNW 02:25:37 56° NNE 02:31:23 26° E visible
29 Apr 7.6 04:21:05 10° WNW 04:29:22 62° W 04:29:22 62° W visible
30 Apr 8.1 01:50:32 10° WNW 02:00:17 54° NNE 02:07:17 20° E visible
30 Apr 7.4 03:55:48 10° WNW 04:05:16 73° SW 04:05:16 73° SW visible
30 Apr 9.4 06:02:39 10° W 06:03:16 12° W 06:03:16 12° W visible
01 May 8.1 01:25:13 10° WNW 01:34:57 52° NNE 01:43:12 14° E visible
01 May 7.3 03:30:31 10° WNW 03:40:24 79° SW 03:41:12 74° S visible
01 May 9.2 05:37:01 10° WNW 05:39:12 16° W 05:39:12 16° W visible
02 May 8.2 00:59:53 10° WNW 01:09:37 50° NNE 01:19:00 10° E visible
02 May 7.4 03:05:14 10° WNW 03:15:11 84° SW 03:17:10 63° SE visible
02 May 8.9 05:11:27 10° WNW 05:15:09 20° W 05:15:09 20° W visible
